STARLINK-34713

Last updated on Tue Aug 26 2025 00:02:05 GMT+0000 (Coordinated Universal Time)

1 64906U 25157C 25237.58336806 .00001948 00000+0 58703-4 0 9991 2 64906 53.1612 187.7486 0001609 107.6674 175.8686 15.39608471 5980

Satellite not in orbit

STARLINK-34713